Flag for Norway Weather past 2 weeks in Hammerfest, Norway

Now
36 °F

Fog.


Feels Like: 24 °F
Forecast: 34 / 40 °F
Wind: 21 mph from West

Location: Hammerfest

Current Time: Apr 19, 2015 at 5:27:37 AM

Latest Report: Apr 19, 2015 at 4:50 AM


Visibility: 3 mi

Pressure: 29.62 "Hg

Humidity: 93%

Dew point: 34 °F

Location of HammerfestLocation

Historic Weather in Hammerfest — Graph

°F

Hammerfest temperature yesterday

Maximum temperature yesterday: 41 °F (at 3:50 PM)
Minimum temperature yesterday: 37 °F (at 4:50 AM)
Average temperature yesterday: 39 °F

Past Weeks' High & Low Weather Summary

 TemperatureHumidityPressure
High41 °F (Apr 12, 4:50 PM)100% (Apr 9, 8:50 PM)30.30 "Hg (Apr 9, 8:50 PM)
Low27 °F (Apr 4, 4:50 AM)56% (Apr 12, 6:50 AM)29.00 "Hg (Apr 8, 6:50 AM)
Average36 °F80%29.61 "Hg
* Reported Apr 4 3:50 AM — Apr 19 3:50 AM, Hammerfest, Weather by CustomWeather, © 2015

Note: Actual official high and low records may vary slightly from our data, if they occured in-between our weather recording intervals... More about our weather records

Advertising

Hammerfest weather history for previous 24 hours

 ConditionsComfort  
Time TempWeatherWind HumidityBarometerVisibility
3:50 AM
Sun, Apr 19
39 °FLight rain. Mostly cloudy.14 mph81%29.62 "HgN/A
2:50 AM36 °FLight rain. Mostly cloudy.18 mph93%29.62 "Hg3 mi
1:50 AM39 °FLight rain. Overcast.21 mph87%29.65 "Hg4 mi
12:50 AM39 °FDrizzle. Mostly cloudy.26 mph87%29.68 "HgN/A
11:50 PM
Sat, Apr 18
39 °FLight rain. Overcast.26 mph87%29.71 "HgN/A
10:50 PM39 °FLight rain. Mostly cloudy.28 mph93%29.74 "Hg4 mi
9:50 PM39 °FLight rain. Mostly cloudy.18 mph93%29.77 "HgN/A
8:50 PM41 °FBroken clouds.21 mph81%29.80 "HgN/A
7:50 PM39 °FBroken clouds.23 mph93%29.80 "HgN/A
7:02 PM39 °FLight rain. Broken clouds.22 mph93%29.83 "HgN/A
5:50 PM39 °FDrizzle. Low clouds.16 mph93%29.83 "HgN/A
4:50 PM39 °FDrizzle. Partly sunny.13 mph87%29.86 "HgN/A
3:50 PM41 °FPartly sunny.13 mph81%29.89 "HgN/A
2:50 PM39 °FBroken clouds.13 mph87%29.92 "HgN/A
1:50 PM39 °FBroken clouds.23 mph87%29.92 "HgN/A
12:50 PM39 °FDrizzle. Broken clouds.14 mph93%29.92 "HgN/A
11:50 AM39 °FLight rain. Broken clouds.20 mph93%29.95 "HgN/A
10:50 AM39 °FLight rain. Mostly cloudy.16 mph93%29.95 "HgN/A
9:50 AM39 °FDrizzle. Mostly cloudy.15 mph93%29.95 "HgN/A
8:50 AM39 °FBroken clouds.17 mph93%29.95 "HgN/A
7:50 AM37 °FDrizzle. Low clouds.10 mph100%29.95 "Hg3 mi
6:50 AM37 °FDrizzle. Partly sunny.7 mph93%29.98 "Hg5 mi
5:50 AM37 °FDrizzle. Broken clouds.2 mph93%29.98 "HgN/A
Weather by CustomWeather, © 2015

See weather overviewHow to use our weather pages